Probability
0 0 0 0 0 0 0 0 0 0 0 0 0 0 0 0 0 0 0 0 0 0 0 0 0 0 0 0 0 0 0 0 0 0 0 0 0 0 0 0 0 0 0 0
3 0 0 0 0 0 0 0 0 0 0 0 0 0 0 0 0 0 0 0 0 0 0 0 0 0 0 0 0 0 0 0 0 0 0 0 0 0 0 0 0 0 0 0
3 0 0 0 0 0 0 0 0 0 0 0 0 0 0 0 0 0 0 0 0 0 0 0 0 0 0 0 0 0 0 0 0 0 0 0 0 0 0 0 0 0 0 0
3 3 3 3 0 0 0 0 0 0 0 0 0 0 0 0 0 0 0 0 0 0 0 0 0 0 0 0 0 0 0 0 0 0 0 0 0 0 0 0 0 0 0 0
3 0 0 0 0 0 0 0 0 0 0 0 0 0 0 0 0 0 0 0 0 0 0 0 0 0 0 0 0 0 0 0 0 0 0 0 0 0 0 0 0 0 0 0
3 0 0 0 0 0 0 0 0 0 0 0 0 0 0 0 0 0 0 0 0 0 0 0 0 0 0 0 0 0 0 0 0 0 0 0 0 0 0 0 0 0 0 0
16 0 0 0 0 0 0 0 0 0 0 0 0 0 0 0 0 0 0 0 0 0 0 0 0 0 0 0 0 0 0 0 0 0 0 0 0 0 0 0 0 0 0 0
0 3 0 0 0 0 0 0 0 0 0 0 0 0 0 0 0 0 0 0 0 0 0 0 0 0 0 0 0 0 0 0 0 0 0 0 0 0 0 0 0 0 0 0
0 0 0 0 0 0 0 0 0 0 0 0 0 0 0 0 0 0 0 0 0 0 0 0 0 0 0 0 0 0 0 0 0 0 0 0 0 0 0 0 0 0 0 0
0 0 0 0 0 0 0 0 0 0 0 0 0 0 0 0 0 0 0 0 0 0 0 0 0 0 0 0 0 0 0 0 0 0 0 0 0 0 0 0 0 0 0 0
0 0 0 0 0 0 0 0 0 0 0 0 0 0 0 0 0 0 0 0 0 0 0 0 0 0 0 0 0 0 0 0 0 0 0 0 0 0 0 0 0 0 0 0
0 0 0 0 0 0 0 0 0 0 0 0 0 0 0 0 0 0 0 0 0 0 0 0 0 0 0 0 0 0 0 0 0 0 0 0 0 0 0 0 0 0 0 0
0 0 0 0 0 0 0 0 0 0 0 0 0 0 0 0 0 0 0 0 0 0 0 0 0 0 0 0 0 0 0 0 0 0 0 0 0 0 0 0 0 0 0 0
0 0 0 0 0 0 0 0 0 0 0 0 0 0 0 0 0 0 0 0 0 0 0 0 0 0 0 0 0 0 0 0 0 0 0 0 0 0 0 0 0 0 0 0
0 0 0 0 0 0 0 0 0 0 0 0 0 0 0 0 0 0 0 0 0 0 0 0 0 0 0 0 0 0 0 0 0 0 0 0 0 0 0 0 0 0 0 0
0 0 0 0 0 0 0 0 0 0 0 0 0 0 0 0 0 0 0 0 0 0 0 0 0 0 0 0 0 0 0 0 0 0 0 0 0 0 0 0 0 0 0 0
0 0 0 0 0 0 0 0 0 0 0 0 0 0 0 0 0 0 0 0 0 0 0 0 0 0 0 0 0 0 0 0 0 0 0 0 0 0 0 0 0 0 0 0
0 0 0 0 0 0 0 0 0 0 0 0 0 0 0 0 0 0 0 0 0 0 0 0 0 0 0 0 0 0 0 0 0 0 0 0 0 0 0 0 0 0 0 0
0 0 0 0 0 0 0 0 0 0 0 0 0 0 0 0 0 0 0 0 0 0 0 0 0 0 0 0 0 0 0 0 0 0 0 0 0 0 0 0 0 0 0 0
0 0 0 0 0 0 0 0 0 0 0 0 0 0 0 0 0 0 0 0 0 0 0 0 0 0 0 0 0 0 0 0 0 0 0 0 0 0 0 0 0 0 0 0
0 0 0 0 0 0 0 0 0 0 0 0 0 0 0 0 0 0 0 0 0 0 0 0 0 0 0 0 0 0 0 0 0 0 0 0 0 0 0 0 0 0 0 0
0 0 0 0 0 0 0 0 0 0 0 0 0 0 0 0 0 0 0 0 0 0 0 0 0 0 0 0 0 0 0 0 0 0 0 0 0 0 0 0 0 0 0 0
0 0 0 0 0 0 0 0 0 0 0 0 0 0 0 3 0 0 0 0 0 0 0 0 0 0 0 0 0 0 0 0 0 0 0 0 0 0 0 0 0 0 0 0
0 0 0 0 0 3 0 0 0 3 3 3 0 0 3 3 0 0 0 0 0 0 0 0 0 0 0 0 0 0 0 0 0 0 0 0 0 0 0 0 0 0 0 0
0 0 0 0 0 0 0 3 3 3 0 0 0 0 0 0 0 0 0 0 0 0 0 0 0 0 0 0 0 0 0 0 0 0 0 0 0 0 0 0 0 0 0 0
0 0 0 0 0 3 0 3 0 0 0 0 0 0 0 0 0 0 0 0 0 0 0 0 0 0 0 0 0 0 0 0 0 0 0 0 0 0 0 0 0 0 0 0
0 0 0 0 0 0 0 0 0 0 0 0 0 0 0 0 0 0 0 0 0 0 0 0 0 0 0 0 0 0 0 0 0 0 0 0 0 0 0 0 0 0 0 0
Height
5855 5855 5854 5852 5850 5848 5845 5843 5841 5839 5835 5829 5825 5821 5817 5812 5807 5800 5794 5787 5779 5770 5761 5753 5744 5735 5726 5718 5709 5701 5694 5686 5679 5671 5664 5657 5649 5642 5635 5629 5623 5618 5613 5610
5853 5852 5851 5850 5848 5845 5842 5839 5837 5834 5830 5825 5821 5816 5812 5807 5801 5795 5788 5780 5771 5762 5753 5744 5734 5725 5717 5708 5699 5691 5683 5675 5667 5659 5651 5643 5635 5627 5619 5613 5606 5600 5595 5591
5850 5849 5848 5848 5845 5842 5839 5836 5833 5830 5826 5821 5816 5811 5806 5802 5795 5788 5781 5772 5763 5754 5744 5735 5725 5716 5707 5698 5690 5681 5673 5664 5655 5647 5639 5630 5621 5613 5605 5597 5590 5583 5577 5573
5847 5847 5845 5846 5841 5839 5836 5832 5829 5825 5820 5816 5811 5805 5799 5795 5788 5781 5773 5764 5755 5746 5736 5727 5717 5708 5699 5689 5680 5672 5663 5654 5645 5636 5627 5618 5609 5600 5592 5583 5576 5568 5562 5557
5845 5843 5843 5840 5836 5835 5832 5827 5824 5820 5816 5811 5807 5801 5793 5787 5781 5773 5765 5757 5748 5738 5728 5719 5709 5700 5691 5681 5672 5663 5654 5645 5635 5626 5617 5607 5598 5589 5580 5572 5564 5556 5550 5545
5842 5840 5838 5837 5833 5830 5827 5821 5819 5814 5810 5806 5801 5797 5791 5783 5776 5768 5760 5750 5741 5731 5721 5711 5702 5692 5683 5674 5664 5655 5645 5636 5627 5617 5607 5597 5588 5579 5571 5562 5554 5547 5541 5535
5838 5836 5835 5830 5828 5826 5823 5819 5814 5809 5805 5800 5795 5791 5785 5777 5770 5761 5753 5743 5734 5724 5714 5704 5695 5686 5676 5667 5657 5647 5638 5628 5619 5608 5599 5589 5580 5571 5563 5555 5547 5540 5534 5529
5835 5833 5832 5826 5823 5820 5817 5813 5809 5804 5800 5795 5790 5784 5778 5771 5763 5755 5746 5737 5727 5718 5708 5698 5689 5679 5670 5660 5650 5640 5631 5621 5612 5601 5592 5582 5574 5565 5557 5549 5541 5534 5528 5524
5831 5829 5824 5821 5817 5814 5810 5807 5803 5799 5794 5789 5784 5778 5772 5765 5757 5749 5740 5731 5721 5712 5702 5692 5683 5673 5664 5654 5644 5635 5625 5615 5606 5596 5586 5577 5568 5560 5552 5544 5537 5530 5524 5520
5825 5823 5818 5815 5811 5808 5804 5801 5797 5793 5788 5783 5778 5772 5765 5758 5751 5742 5733 5724 5715 5706 5697 5687 5677 5667 5658 5648 5639 5629 5620 5610 5601 5592 5582 5573 5565 5557 5549 5541 5534 5527 5522 5518
5817 5815 5812 5809 5805 5802 5798 5795 5791 5787 5782 5777 5772 5766 5759 5752 5744 5736 5727 5719 5710 5701 5691 5682 5672 5662 5653 5643 5634 5625 5616 5607 5598 5588 5579 5571 5562 5554 5546 5539 5532 5526 5521 5516
5812 5808 5805 5802 5799 5795 5792 5789 5785 5780 5776 5770 5765 5759 5752 5745 5738 5730 5721 5713 5704 5695 5686 5677 5667 5658 5648 5639 5630 5621 5612 5603 5595 5586 5577 5569 5561 5553 5545 5538 5531 5525 5520 5515
5805 5802 5799 5796 5793 5789 5786 5782 5778 5774 5769 5764 5758 5752 5745 5738 5731 5723 5715 5707 5699 5690 5681 5672 5663 5653 5644 5635 5627 5618 5609 5601 5593 5584 5576 5568 5560 5553 5546 5539 5532 5526 5521 5516
5798 5795 5793 5790 5787 5783 5779 5775 5771 5766 5762 5757 5751 5745 5738 5732 5725 5717 5710 5702 5694 5685 5677 5668 5659 5650 5641 5632 5624 5615 5607 5599 5591 5584 5576 5568 5561 5554 5547 5540 5534 5528 5523 5518
5791 5788 5785 5782 5779 5776 5772 5768 5763 5759 5754 5748 5743 5737 5731 5725 5718 5711 5704 5696 5689 5681 5672 5664 5655 5647 5638 5630 5622 5614 5606 5598 5591 5583 5576 5569 5562 5555 5549 5542 5536 5531 5525 5521
5783 5780 5777 5774 5771 5767 5763 5760 5755 5750 5746 5741 5735 5730 5724 5718 5712 5705 5698 5691 5684 5676 5669 5660 5652 5644 5636 5628 5620 5612 5605 5598 5591 5584 5577 5570 5563 5557 5551 5544 5538 5533 5528 5524
5773 5771 5768 5765 5762 5758 5754 5751 5747 5742 5737 5732 5728 5722 5717 5711 5705 5699 5692 5685 5678 5672 5664 5657 5649 5641 5633 5625 5618 5611 5604 5598 5591 5585 5578 5572 5565 5559 5553 5547 5541 5536 5531 5527
5763 5761 5757 5754 5751 5748 5745 5741 5737 5733 5729 5725 5720 5715 5710 5704 5699 5693 5686 5680 5673 5667 5660 5653 5645 5638 5631 5624 5617 5610 5604 5598 5592 5586 5580 5574 5568 5562 5556 5550 5544 5539 5534 5530
5752 5750 5747 5744 5741 5738 5735 5731 5727 5723 5719 5715 5711 5707 5702 5696 5691 5686 5680 5674 5668 5662 5656 5648 5641 5635 5628 5622 5615 5609 5604 5598 5592 5587 5581 5576 5570 5564 5559 5553 5548 5543 5538 5533
5741 5738 5735 5733 5730 5727 5724 5721 5717 5713 5709 5705 5701 5697 5693 5688 5683 5678 5673 5668 5663 5657 5651 5644 5638 5632 5626 5620 5614 5608 5603 5598 5593 5588 5583 5577 5573 5568 5562 5557 5552 5547 5542 5538
5729 5727 5724 5721 5718 5715 5712 5709 5705 5702 5699 5695 5691 5687 5684 5679 5675 5671 5666 5661 5656 5651 5646 5640 5635 5629 5623 5617 5612 5607 5603 5598 5594 5589 5584 5580 5575 5570 5566 5561 5557 5552 5547 5543
5716 5713 5711 5708 5704 5702 5699 5696 5693 5690 5686 5683 5680 5677 5673 5670 5666 5662 5659 5655 5650 5645 5640 5635 5630 5625 5620 5615 5610 5606 5602 5598 5594 5590 5586 5582 5578 5573 5569 5565 5561 5557 5553 5549
5700 5698 5695 5693 5690 5687 5685 5682 5679 5676 5673 5671 5668 5665 5662 5659 5656 5653 5650 5646 5643 5639 5635 5630 5626 5621 5616 5612 5608 5604 5601 5597 5594 5591 5587 5584 5580 5576 5573 5569 5565 5562 5558 5555
5683 5681 5679 5676 5674 5672 5669 5667 5664 5662 5659 5657 5655 5653 5651 5649 5646 5644 5641 5638 5635 5632 5629 5625 5621 5617 5612 5609 5605 5602 5599 5596 5593 5591 5588 5585 5582 5579 5576 5573 5570 5567 5564 5561
5665 5663 5661 5659 5657 5655 5653 5651 5649 5647 5645 5644 5642 5640 5639 5638 5636 5633 5631 5629 5627 5624 5621 5619 5615 5612 5608 5605 5602 5599 5597 5595 5592 5590 5588 5586 5584 5582 5579 5576 5574 5571 5569 5567
5648 5646 5644 5642 5640 5639 5637 5635 5633 5632 5631 5630 5629 5627 5627 5626 5625 5623 5621 5620 5618 5616 5614 5612 5609 5606 5603 5601 5598 5596 5594 5593 5591 5589 5588 5586 5585 5583 5582 5580 5578 5576 5574 5573
5630 5628 5627 5625 5624 5623 5621 5620 5619 5618 5617 5616 5615 5615 5614 5614 5613 5612 5611 5611 5610 5608 5607 5605 5603 5600 5598 5596 5594 5592 5591 5590 5589 5588 5587 5586 5585 5585 5584 5583 5581 5580 5579 5577
Wind_Speed
8 10 12 13 14 14 16 16 16 18 22 27 27 28 29 30 32 35 37 40 42 45 47 48 48 48 47 46 46 46 45 46 46 46 46 47 49 49 49 49 50 50 51 51
8 9 12 13 15 18 19 19 19 20 23 27 28 30 30 31 33 36 39 41 44 47 48 49 49 48 47 46 46 46 46 46 46 46 47 48 49 48 47 47 48 48 48 48
8 9 11 14 17 20 21 22 23 24 26 27 28 30 32 32 34 37 40 43 46 48 49 50 49 48 47 47 47 46 46 45 45 46 47 47 47 45 45 45 46 44 44 44
10 9 12 16 19 21 24 25 25 26 27 28 29 32 35 35 37 40 43 45 47 49 50 50 49 48 47 47 47 46 46 45 45 46 46 46 45 45 43 43 42 41 40 39
13 11 12 18 23 22 25 27 25 26 26 28 29 31 36 38 40 43 45 47 49 50 50 49 48 48 47 47 47 46 45 45 46 46 45 45 44 42 40 39 38 37 36 34
16 15 14 18 22 23 26 30 27 28 28 30 31 32 34 38 40 43 45 47 49 50 50 49 48 48 47 47 47 46 45 45 46 45 44 43 41 39 38 37 36 34 32 29
20 19 19 24 25 26 28 29 29 30 30 31 33 34 36 39 41 44 46 48 49 49 50 49 48 47 47 47 46 45 44 45 45 44 43 40 38 37 36 35 34 31 28 25
21 20 23 27 29 29 29 28 29 29 30 31 33 35 37 40 43 45 46 48 48 49 49 49 48 47 46 46 46 45 44 44 44 43 41 38 36 35 34 33 31 28 25 22
22 24 28 29 29 30 30 29 29 29 30 32 34 36 38 41 44 46 47 47 48 48 48 48 48 47 46 46 45 44 43 43 42 40 38 36 35 34 33 32 29 26 23 20
25 24 28 29 30 30 29 29 29 30 31 33 35 37 40 42 44 46 47 47 47 47 48 48 47 47 46 45 44 43 42 40 39 38 36 35 34 33 32 30 28 25 21 18
29 28 28 28 29 29 29 29 30 31 32 34 36 39 41 44 45 46 47 46 46 47 47 47 47 46 45 44 43 42 40 38 38 37 35 34 33 32 30 29 26 23 20 16
28 29 29 29 30 30 30 30 31 32 34 36 38 40 43 44 45 46 46 46 46 46 47 47 47 46 44 43 42 41 38 37 36 36 34 33 32 30 29 27 25 22 19 16
29 28 28 29 30 31 31 32 33 34 36 38 40 42 43 44 45 46 46 46 46 46 46 46 46 45 43 42 41 39 37 35 34 34 33 32 30 29 27 26 24 22 19 16
29 29 29 29 30 32 33 34 35 36 38 39 41 42 43 44 45 46 46 45 45 45 45 45 45 44 42 41 39 37 35 34 33 32 32 31 29 28 27 26 24 22 20 16
30 31 32 32 33 34 35 36 37 39 40 42 43 43 44 45 45 46 45 45 44 44 44 44 44 43 41 39 38 35 34 33 32 31 30 29 28 27 27 26 24 22 20 16
33 34 35 36 36 37 38 38 39 40 42 42 43 43 44 45 45 45 45 44 44 43 43 43 43 42 40 38 36 34 32 31 30 29 28 28 27 26 26 26 24 22 19 16
36 37 38 38 39 39 40 40 41 42 43 42 43 43 44 45 45 45 44 43 43 42 42 42 41 40 38 36 34 32 30 29 28 27 27 27 26 25 25 25 23 21 19 17
38 40 41 41 42 42 42 42 43 44 43 43 43 43 44 45 45 44 43 42 42 42 41 41 40 39 37 34 32 30 28 27 26 25 25 25 25 24 24 24 22 21 20 18
40 41 42 43 44 44 43 44 45 45 45 44 44 43 43 44 44 43 42 41 41 40 40 39 38 36 34 32 30 27 26 25 24 23 23 23 22 23 23 23 22 22 21 19
43 44 44 45 45 45 45 45 45 46 45 45 44 43 43 43 43 42 42 41 40 39 38 37 36 34 33 30 28 25 23 23 22 21 21 20 21 21 21 22 21 21 21 20
45 45 46 46 47 47 47 46 46 46 46 46 45 44 44 44 42 41 40 39 38 37 36 35 33 32 31 28 26 23 21 20 19 19 19 19 19 19 19 19 20 20 20 20
48 48 49 49 50 49 49 48 48 47 47 47 46 45 45 44 42 40 39 37 36 35 34 32 32 30 29 26 24 21 20 18 17 16 16 16 17 17 16 17 18 19 19 19
52 53 53 53 52 52 51 51 50 49 49 48 47 45 44 44 41 39 38 37 35 33 32 30 29 29 27 24 22 19 17 16 15 14 14 14 15 15 14 15 16 17 17 17
56 56 56 55 55 54 53 52 51 51 50 49 47 46 44 42 41 39 37 35 33 32 30 29 28 27 25 22 20 17 16 14 13 11 11 11 12 13 12 13 13 14 15 15
58 57 57 56 55 54 53 52 51 50 49 48 46 44 41 40 40 38 36 34 32 30 28 27 26 25 23 21 18 16 14 12 11 9 8 8 9 10 10 10 12 13 13 14
58 57 56 55 54 52 51 50 49 47 46 45 43 41 39 38 38 37 34 32 30 29 27 26 25 23 21 19 17 15 12 11 9 8 6 5 5 6 7 8 9 10 11 12
57 56 54 53 51 50 49 47 46 45 44 42 41 39 37 36 35 34 32 30 29 27 26 24 24 22 20 18 16 14 12 10 9 7 5 3 2 2 3 5 7 8 9 10
Wind_Direction
284 294 297 300 305 305 306 307 303 300 301 303 313 315 318 321 322 324 326 327 327 327 327 327 326 325 324 323 321 319 316 314 312 309 308 307 305 302 300 297 294 289 284 279
289 287 300 314 309 307 311 313 311 310 307 309 314 316 318 322 323 325 326 327 328 328 329 328 328 327 326 324 323 321 319 317 315 313 312 311 309 306 303 301 297 293 288 282
290 286 298 305 301 306 311 312 311 310 310 313 315 316 319 324 325 326 328 330 331 331 330 330 329 329 328 326 325 323 322 320 319 317 316 314 313 310 308 305 302 298 293 287
304 300 303 299 300 304 307 309 311 312 313 316 319 320 321 326 328 330 332 333 333 332 332 331 331 330 329 328 327 326 325 323 321 320 319 318 316 314 312 310 307 302 297 291
311 305 296 297 301 306 308 308 313 312 314 316 319 322 323 328 330 332 333 333 333 333 333 333 332 332 331 331 330 328 327 325 324 323 322 321 320 318 317 315 313 309 304 297
312 312 310 295 299 309 309 309 317 316 318 319 320 322 323 327 329 331 332 333 334 334 334 334 334 333 333 333 332 331 329 328 327 327 325 325 324 323 322 321 319 315 310 303
313 313 306 297 305 306 307 310 315 315 317 317 319 322 324 327 329 331 333 334 335 336 336 336 335 335 334 334 334 333 331 330 330 330 329 328 328 327 326 325 323 320 316 310
297 295 287 297 301 304 307 309 310 312 314 316 319 322 325 328 330 332 333 334 335 337 337 337 337 336 336 336 336 335 334 334 334 333 333 333 332 331 331 330 328 326 321 315
294 294 294 297 299 303 305 308 310 312 314 317 320 323 326 329 331 332 333 334 335 337 337 337 337 337 337 337 337 337 337 337 337 338 338 338 337 336 336 335 333 330 326 321
299 296 294 297 300 303 305 308 310 313 315 318 321 324 326 328 331 333 334 334 335 336 337 338 338 338 338 339 339 339 339 340 341 342 342 342 342 341 340 340 338 334 329 324
299 300 299 301 302 305 307 309 311 313 316 319 321 324 326 329 331 333 335 335 336 337 338 338 339 339 339 340 340 340 341 342 343 345 345 346 346 345 345 344 343 341 337 330
295 299 301 303 305 306 308 309 311 312 315 319 321 324 326 329 332 334 335 335 336 338 339 340 340 341 341 341 341 342 343 343 345 347 349 350 350 350 350 350 350 349 346 342
297 299 300 302 304 306 307 308 310 312 315 318 321 324 326 328 331 334 335 335 336 338 339 340 341 341 342 342 343 344 345 345 347 350 352 353 355 356 357 357 356 356 356 355
297 298 299 300 302 303 304 306 308 311 314 317 320 323 325 327 330 332 334 335 336 338 339 340 341 342 343 343 344 345 346 348 349 352 354 356 357 359 1 360 360 0 2 4
295 296 298 300 301 302 304 306 308 311 313 316 319 322 324 326 328 331 333 334 335 337 339 340 341 342 343 344 345 345 347 350 351 353 355 357 358 360 1 1 2 3 5 9
293 295 297 298 300 301 303 306 307 309 311 314 316 320 322 324 326 329 330 332 334 335 337 339 340 341 343 344 345 345 347 350 352 355 357 359 359 0 1 3 5 6 8 9
293 294 295 296 298 300 302 304 305 306 308 310 312 316 319 321 323 325 327 329 331 333 335 337 338 340 342 344 344 345 347 349 353 356 358 0 1 2 3 5 7 7 8 8
291 292 293 295 296 298 299 300 301 303 305 306 309 311 314 317 319 321 323 326 329 331 333 335 336 338 341 343 344 345 347 348 351 355 358 360 2 5 6 7 10 10 10 10
290 290 291 292 294 295 296 296 298 300 302 304 306 307 309 312 315 317 319 322 326 328 331 333 335 337 339 341 342 344 346 348 351 355 359 2 4 7 9 12 14 16 18 19
287 288 289 290 292 293 293 293 294 296 298 300 302 303 304 307 311 313 316 319 322 325 328 331 333 335 337 339 340 342 343 346 350 353 358 2 5 9 12 16 20 22 23 24
285 286 287 289 289 290 290 291 292 293 295 296 297 299 300 303 306 309 311 314 318 322 324 328 331 333 335 336 338 340 341 343 347 352 357 2 7 10 13 18 21 23 26 30
284 284 285 286 287 288 288 289 289 290 291 292 294 295 297 298 301 305 307 311 314 317 320 324 328 330 332 333 334 335 337 339 343 350 357 1 5 11 16 20 24 28 32 36
282 283 284 284 285 286 287 287 287 287 288 290 291 293 295 297 299 301 303 307 311 313 316 320 324 327 328 329 329 330 332 335 338 344 352 358 5 12 18 22 27 33 36 40
283 283 284 284 285 285 286 286 286 287 288 289 289 290 292 293 295 297 299 301 304 308 311 316 320 323 325 325 324 323 324 327 331 337 346 355 4 13 19 25 33 41 44 46
282 283 283 284 285 285 285 285 284 285 286 286 288 288 288 289 290 291 293 295 297 301 306 311 315 318 320 320 319 316 316 318 322 327 333 346 1 14 24 33 42 48 50 53
282 282 283 283 284 284 284 284 284 284 285 285 285 286 285 284 284 287 288 289 291 296 300 305 309 312 314 314 313 309 306 308 309 314 323 334 351 13 30 41 47 51 54 57
282 283 283 283 283 284 284 284 284 284 283 284 284 283 282 281 282 283 285 286 288 292 296 301 305 307 308 308 306 300 295 294 294 293 294 306 325 11 44 57 61 60 60 61